User: anonymous   Login
Location: Whispering Pines Observatory
(39.4020°N, 104.7430°W)
Time: 19:33:44
(UTC-06:00)
Language:

MOS 1 Rocket - Orbit

View from above orbital plane
View from above orbital plane
View from above satellite
View from above satellite

Ground track
Ground track

The orbit data is extracted from the following two-line orbital elements,

1 17528U 87018B   15241.12091488  .00000140  00000-0  40216-4 0  9995
2 17528 097.4115 264.6597 0152518 200.4472 228.2135 14.50479859504477
Epoch (UTC): 29 August 2015 02:54:07
Eccentricity: 0.0152518
inclination: 97.4115°
perigee height: 616 km
apogee height: 832 km
right ascension of ascending node: 264.6597°
argument of perigee: 200.4472°
revolutions per day: 14.50479859
mean anomaly at epoch: 228.2135°
orbit number at epoch: 50447

The dashed part of the orbit path shows where the satellite is in the earth's shadow,  

DLR